User: anonymous   Login
Location: Caltech
(34.1382°N, 118.1253°W)
Time: 19:51:53
(UTC-07:00)
Language:

SEDSat Delta rocket - Orbit

View from above orbital plane
View from above orbital plane
View from above satellite
View from above satellite

Ground track
Ground track

The orbit data is extracted from the following two-line orbital elements,

1 25510U 98061C   16239.87194421  .00000150  00000-0  15768-4 0  9991
2 25510  31.4360  28.1383 0328701 351.2570 171.6386 14.37066874934948
Epoch (UTC): 26 August 2016 20:55:35
Eccentricity: 0.0328701
inclination: 31.4360°
perigee height: 533 km
apogee height: 1003 km
right ascension of ascending node: 28.1383°
argument of perigee: 351.2570°
revolutions per day: 14.37066874
mean anomaly at epoch: 171.6386°
orbit number at epoch: 93494

The dashed part of the orbit path shows where the satellite is in the earth's shadow,  

DLR